User: anonymous   Login
Location: Unspecified
(0.0000°N, 0.0000°E)
Time: 02:09:33
(UTC+00:00)
Language:

TBA - TO BE ASSIGNED - Orbit

View from above orbital plane
View from above orbital plane
View from above satellite
View from above satellite

Ground track
Ground track

The orbit is defined by the following mean orbital elements,

1 68274U          26145.50375763 +.00000000 +00000-0 +10225-2 0 00006
2 68274  53.1593 321.6091 0000576  52.5517 307.5538 15.34411866    00
Epoch (UTC): 25 May 2026 12:05:24
Eccentricity: 0.0000576
inclination: 53.1593°
perigee height: 462 km
apogee height: 463 km
right ascension of ascending node: 321.6091°
argument of perigee: 52.5517°
revolutions per day: 15.34411866
mean anomaly at epoch: 307.5538°

The dashed part of the orbit path shows where the satellite is in the earth's shadow,  

DLR